Location: Newark
(34.3481°N, 134.0494°E)
Time: 03:01:42
(UTC+00:00)

Vanguard 3 - Pass Details

Date: 30 January 2020
Orbit: 508 x 3263 km, 33.3° (Epoch: 16 February)

Event Time Altitude Azimuth Distance (km) Brightness Sun altitude
Rises 07:53:40 0° 253° (WSW) 6,485 14.1 6.2°
Reaches altitude 10° 07:57:33 10° 252° (WSW) 5,713 14.0 5.4°
Maximum altitude 08:16:44 83° 168° (SSE) 3,276 10.3 1.8°
Drops below altitude 10° 08:35:05 10° 84° (E) 5,496 10.8 -1.7°
Enters shadow 08:38:26 - 84° (E) 6,179 11.0 -2.3°
Sets 08:38:43 0° 84° (E) 6,240 - -2.4°
